DECAYED

RESURS P1 DEB, 60226 (Decayed)

Orbit data source: Space-Track

RESURS P1 DEB, 60226 was space debris in LEO originally from a Commonwealth of Independent States-origin launch on Tue, 25 Jun 2013 UTC launched from the Tyuratam Missile And Space Complex (TTMTR). Debris objects in space refer to the collection of defunct objects orbiting the Earth. Examples of debris include non-operational satellites, rocket bodies, and fragments generated from explosions, collisions, or faulty payload assembly.

Not visible in the next 10 days
RESURS P1 DEB details
Identifier
60226, 2013-030Q
Orbit
Decayed
Last TLE update5 months ago
Origin
Flag of CISTSSKBP? (CIS)
ManufacturerTSSKBP?
MissionDecayed spacecraft
Bus & MotorUnknown
MassUnknown
Launch date (UTC)
2013-06-25 (11 years ago)
Launch vehicleUnknown
Launch site
Tyuratam Missile And Space Complex (TTMTR)
Object type
Payload
Rocket body
Debris
Shape & HBRUnknown
Radar Cross SectionLarge (>1 m²)

Expand to show TLE details & history

TLE from 5 months ago
0 RESURS P1 DEB
1 60226U 13030Q   24189.41106529  .19092115  22526-5  34581-2 0  9998
2 60226  96.9797 239.7526 0015738 274.9802  84.9697 16.32122412  1430
Epoch: 2024-07-07T09:51Z
Definitive object data (Epoch: 2024-07-07T09:51:56.041Z)
Latitude-0.00007°
Longitude165.9096°
Altitude189.205 km
Speed7.793 km/s
True Right ascension15h 59m 00s
True Declination0° 00' 00"
Sunlit
Object was in full shadow at TLE epoch
Visualization observer readout
Observer readout values are unavailable because the object's trajectory could not be propagated. This is usually caused when the trajectory data is faulty or the object's orbit has decayed.
Visualization observer readout
Observer readout values are unavailable because the object's trajectory could not be propagated. This is usually caused when the trajectory data is faulty or the object's orbit has decayed.
Orbital elements
Apogee altitude193.969 km
Perigee altitude173.315 km
Semi-major axis6,561.779 km
Eccentricity0.0015738
Inclination96.9797°
RAAN239.7526°
Arg. of periapsis274.9802°
True anomaly85.14938°
Mean anomaly84.9697°
Eccentric anomaly85.05954°
Mean motion4.0833 °/min
BSTAR0.0034581
Orbital period88.16 mins
Loading maneuver chart data...

RESURS P1 DEB Visibility forecast

Observer location: undefined°, undefined

This satellite is decayed
Span
Click to sort rows by Start time (UTC) header in descending order
Start Az.
Max El. time (UTC)
Max El. Az.
Max El.
End time (UTC)
End Az.
|